Greenwood, SC

6:33 PM EST on February 27, 2017 (GMT -0500)
Greenwood County

Weather History for KGRD - December, 2012

Change the Weather History Date:

Thursday, December 20, 2012

  Actual Average (KAND) Record (KAND)
Temperature  
Mean Temperature 48 °F -  
Max Temperature 60 °F 54 °F 74 °F (1978)
Min Temperature 36 °F 36 °F 9 °F (1981)
Degree Days  
Heating Degree Days 17    
Moisture  
Dew Point 47 °F    
Average Humidity 91    
Maximum Humidity 100    
Minimum Humidity 58    
Precipitation  
Precipitation 0.92 in - - ()
Sea Level Pressure  
Sea Level Pressure 29.83 in    
Wind  
Wind Speed 4 mph (SW)    
Max Wind Speed 25 mph    
Max Gust Speed 37 mph    
Visibility 6 miles    
Events Rain    
Averages and records for this station are not official NWS values.
T = Trace of Precipitation, MM = Missing Value Source: NWS Daily Summary

Daily Weather History Graph

Daily Weather History Graph

Search for Another Location

Airport or City:

Trip Planner

Search our weather history database for the weather conditions in past years. The results will help you decide how hot, cold, wet, or windy it might be!

Date:

Astronomy

Dec. 20, 2012 Rise Set
Actual Time 7:30 AM EST 5:22 PM EST
Civil Twilight 7:02 AM EST 5:50 PM EST
Nautical Twilight 6:31 AM EST 6:21 PM EST
Astronomical Twilight 6:00 AM EST 6:52 PM EST
Moon 12:27 PM EST (12/20) 12:30 AM EST (12/20)
Length of Visible Light 10h 47m
Length of Day
9h 52m
First Quarter, 55% of the Moon is Illuminated
Dec 20
First Quarter
Dec 28
Full
Jan 4
Last Quarter
Jan 11
New
Jan 18
First Quarter

Hourly Weather History & Observations

Time (EST) Temp. Windchill Dew Point Humidity Pressure Visibility Wind Dir Wind Speed Gust Speed Precip Events Conditions
12:56 AM 41.0 °F - 39.0 °F 93% 30.11 in 10.0 mi Calm Calm - N/A   Clear
1:56 AM 43.0 °F - 41.0 °F 93% 30.09 in 10.0 mi Calm Calm - N/A   Clear
2:56 AM 39.0 °F - 37.0 °F 93% 30.10 in 10.0 mi Calm Calm - N/A   Clear
3:56 AM 37.0 °F - 36.0 °F 96% 30.09 in 9.0 mi Calm Calm - N/A   Clear
4:30 AM 39.2 °F - 37.4 °F 93% 30.08 in 1.8 mi Calm Calm - N/A   Clear
4:45 AM 37.4 °F - 37.4 °F 100% 30.08 in 3.0 mi Calm Calm - N/A   Clear
4:56 AM 36.0 °F - 36.0 °F 100% 30.08 in 10.0 mi Calm Calm - N/A   Clear
5:23 AM 37.4 °F - 35.6 °F 93% 30.07 in 1.8 mi Calm Calm - N/A   Clear
5:38 AM 37.4 °F - 37.4 °F 100% 30.06 in 3.0 mi Calm Calm - N/A   Clear
5:56 AM 37.0 °F - 36.0 °F 96% 30.05 in 6.0 mi Calm Calm - N/A   Clear
6:56 AM 37.9 °F - 37.0 °F 97% 30.06 in 5.0 mi Calm Calm - N/A   Clear
7:56 AM 37.9 °F - 37.0 °F 97% 30.05 in 7.0 mi Calm Calm - N/A   Overcast
8:56 AM 46.0 °F 43.9 °F 42.1 °F 86% 30.03 in 10.0 mi East 4.6 mph - N/A   Mostly Cloudy
9:56 AM 48.9 °F - 43.0 °F 80% 30.02 in 10.0 mi Calm Calm - N/A   Mostly Cloudy
10:56 AM 48.9 °F - 43.0 °F 80% 30.02 in 10.0 mi East 4.6 mph - 0.00 in Rain Light Rain
11:56 AM 52.0 °F - 45.0 °F 77% 29.94 in 10.0 mi SW 4.6 mph - 0.00 in   Overcast
12:17 PM 51.8 °F - 48.2 °F 88% 29.92 in 7.0 mi Calm Calm - 0.01 in Rain Light Rain
12:35 PM 51.8 °F - 48.2 °F 88% 29.90 in 7.0 mi Calm Calm - 0.03 in Rain Light Rain
12:56 PM 50.0 °F - 48.0 °F 93% 29.85 in 10.0 mi ENE 3.5 mph - 0.04 in Rain Light Rain
1:56 PM 51.1 °F - 48.9 °F 92% 29.80 in 6.0 mi NNE 4.6 mph - 0.02 in Rain Light Rain
2:54 PM 51.8 °F - 50.0 °F 94% 29.76 in 2.0 mi NE 4.6 mph - 0.09 in Rain Rain
2:56 PM 51.1 °F - 50.0 °F 96% 29.76 in 2.0 mi NE 3.5 mph - 0.09 in Rain Rain
3:43 PM 51.8 °F - 51.8 °F 100% 29.70 in 2.5 mi East 3.5 mph - 0.12 in Rain Rain
3:56 PM 52.0 °F - 52.0 °F 100% 29.69 in 2.5 mi Calm Calm - 0.14 in Rain Light Rain
4:16 PM 51.8 °F - 51.8 °F 100% 29.69 in 1.2 mi East 3.5 mph - 0.05 in Rain Heavy Rain
4:24 PM 51.8 °F - 51.8 °F 100% 29.68 in 1.5 mi Calm Calm - 0.08 in Rain Heavy Rain
4:37 PM 53.6 °F - 53.6 °F 100% 29.66 in 1.0 mi SE 11.5 mph - 0.15 in Rain Rain
4:49 PM 55.4 °F - 55.4 °F 100% 29.65 in 2.0 mi SSE 12.7 mph 20.7 mph 0.23 in Rain Heavy Rain
4:56 PM 57.0 °F - 57.0 °F 100% 29.65 in 3.0 mi SSE 12.7 mph 20.7 mph 0.25 in Rain Rain
5:31 PM 60.8 °F - 59.0 °F 94% 29.63 in 4.0 mi South 17.3 mph - 0.05 in Rain Light Rain
5:45 PM 60.8 °F - 60.8 °F 100% 29.67 in 3.0 mi West 12.7 mph 25.3 mph 0.13 in Rain Heavy Rain
5:47 PM 60.8 °F - 60.8 °F 100% 29.67 in 2.0 mi West 17.3 mph 25.3 mph 0.17 in Rain Heavy Rain
5:54 PM 60.8 °F - 57.2 °F 88% 29.67 in 1.5 mi West 11.5 mph 23.0 mph 0.24 in Rain Heavy Rain
5:56 PM 60.1 °F - 57.9 °F 93% 29.67 in 1.5 mi West 11.5 mph - 0.27 in Rain Heavy Rain
6:01 PM 60.8 °F - 57.2 °F 88% 29.66 in 2.0 mi Variable 6.9 mph - 0.03 in Rain Heavy Rain
6:12 PM 59.0 °F - 57.2 °F 94% 29.66 in 2.0 mi West 9.2 mph - 0.10 in Rain Heavy Rain
6:25 PM 59.0 °F - 57.2 °F 94% 29.66 in 10.0 mi WSW 6.9 mph - 0.11 in Rain Light Rain
6:35 PM 59.0 °F - 57.2 °F 94% 29.67 in 10.0 mi WSW 9.2 mph - 0.11 in Rain Light Rain
6:56 PM 60.1 °F - 57.9 °F 93% 29.68 in 10.0 mi WSW 15.0 mph 20.7 mph 0.11 in Rain Light Rain
7:06 PM 60.8 °F - 57.2 °F 88% 29.69 in 10.0 mi West 13.8 mph 24.2 mph 0.00 in Rain Light Rain
7:17 PM 55.4 °F - 50.0 °F 82% 29.70 in 10.0 mi West 15.0 mph 29.9 mph 0.00 in Rain Light Rain
7:56 PM 53.1 °F - 48.0 °F 83% 29.71 in 10.0 mi West 16.1 mph 29.9 mph 0.00 in Rain Light Rain
8:56 PM 51.1 °F - 44.1 °F 77% 29.71 in 10.0 mi WSW 13.8 mph 26.5 mph 0.00 in Rain Light Rain
9:56 PM 46.9 °F - 33.1 °F 59% 29.75 in 10.0 mi West 25.3 mph 36.8 mph 0.00 in   Partly Cloudy
10:56 PM 43.0 °F 36.0 °F 28.9 °F 58% 29.77 in 10.0 mi WSW 13.8 mph 27.6 mph 0.00 in   Clear
11:56 PM 43.0 °F 34.8 °F 30.0 °F 60% 29.78 in 10.0 mi West 18.4 mph 31.1 mph N/A   Clear